Kingman, AZ

12:40 AM MST on June 24, 2017 (GMT -0700)
Kingman

Weather History for KIGM - December, 2012

Change the Weather History Date:

Wednesday, December 12, 2012

  Actual Average Record
Temperature  
Mean Temperature 49 °F 43 °F  
Max Temperature 61 °F 54 °F 72 °F (1950)
Min Temperature 37 °F 32 °F 16 °F (1972)
Degree Days  
Heating Degree Days 16 22  
Month to date heating degree days 177 252  
Since 1 July heating degree days 585 818  
Cooling Degree Days 0 0  
Month to date cooling degree days 0 0  
Year to date cooling degree days 2297 2093  
Moisture  
Dew Point 15 °F    
Average Humidity 28    
Maximum Humidity 40    
Minimum Humidity 16    
Precipitation  
Precipitation 0.00 in 0.03 in 2.50 in (1932)
Month to date precipitation 0.00 0.29  
Year to date precipitation 6.88 7.94  
Sea Level Pressure  
Sea Level Pressure 29.83 in    
Wind  
Wind Speed 12 mph (SSE)    
Max Wind Speed 25 mph    
Max Gust Speed 33 mph    
Visibility 10 miles    
Events      
T = Trace of Precipitation, MM = Missing Value Source: NWS Daily Summary

Daily Weather History Graph

Daily Weather History Graph

Search for Another Location

Airport or City:

Trip Planner

Search our weather history database for the weather conditions in past years. The results will help you decide how hot, cold, wet, or windy it might be!

Date:

Astronomy

Dec. 12, 2012 Rise Set
Actual Time 7:35 AM MST 5:24 PM MST
Civil Twilight 7:07 AM MST 5:52 PM MST
Nautical Twilight 6:35 AM MST 6:24 PM MST
Astronomical Twilight 6:04 AM MST 6:55 PM MST
Moon 6:44 AM MST (12/12) 5:04 PM MST (12/12)
Length of Visible Light 10h 45m
Length of Day
9h 48m
Waning Crescent, 0% of the Moon is Illuminated
Dec 12
Waning Crescent
Dec 13
New
Dec 19
First Quarter
Dec 28
Full
Jan 4
Last Quarter

Hourly Weather History & Observations

Time (MST) Temp. Windchill Dew Point Humidity Pressure Visibility Wind Dir Wind Speed Gust Speed Precip Events Conditions
12:51 AM 39.0 °F 31.8 °F 15.1 °F 38% 29.88 in 10.0 mi SE 11.5 mph - N/A   Clear
1:51 AM 39.9 °F 33.9 °F 16.0 °F 38% 29.86 in 10.0 mi SE 9.2 mph - N/A   Clear
2:51 AM 41.0 °F 34.7 °F 15.1 °F 35% 29.85 in 10.0 mi SE 10.4 mph - N/A   Clear
3:51 AM 37.0 °F 29.3 °F 15.1 °F 41% 29.84 in 10.0 mi SE 11.5 mph - N/A   Clear
4:51 AM 42.1 °F 35.2 °F 16.0 °F 35% 29.82 in 10.0 mi SE 12.7 mph - N/A   Clear
5:51 AM 41.0 °F 34.3 °F 16.0 °F 36% 29.84 in 10.0 mi ESE 11.5 mph - N/A   Clear
6:51 AM 43.0 °F 36.4 °F 16.0 °F 34% 29.86 in 10.0 mi SE 12.7 mph - N/A   Unknown
7:51 AM 42.1 °F 35.7 °F 15.1 °F 34% 29.87 in 10.0 mi ESE 11.5 mph - N/A   Clear
8:51 AM 46.0 °F 41.0 °F 15.1 °F 29% 29.86 in 10.0 mi ESE 10.4 mph - N/A   Clear
9:51 AM 51.1 °F - 15.1 °F 24% 29.89 in 10.0 mi ESE 6.9 mph - N/A   Clear
10:51 AM 55.9 °F - 15.1 °F 20% 29.88 in 10.0 mi SSW 11.5 mph - N/A   Clear
11:51 AM 59.0 °F - 15.1 °F 18% 29.85 in 10.0 mi SSW 17.3 mph - N/A   Clear
12:51 PM 61.0 °F - 14.0 °F 16% 29.82 in 10.0 mi SSW 19.6 mph 27.6 mph N/A   Clear
1:51 PM 59.0 °F - 14.0 °F 17% 29.80 in 10.0 mi SSW 18.4 mph - N/A   Clear
2:51 PM 59.0 °F - 14.0 °F 17% 29.78 in 10.0 mi SSW 18.4 mph 26.5 mph N/A   Clear
3:51 PM 57.9 °F - 14.0 °F 18% 29.78 in 10.0 mi SSW 13.8 mph - N/A   Clear
4:51 PM 55.9 °F - 14.0 °F 19% 29.78 in 10.0 mi SW 5.8 mph - N/A   Clear
5:51 PM 53.1 °F - 14.0 °F 21% 29.78 in 10.0 mi SE 8.1 mph - N/A   Clear
6:51 PM 53.6 °F - 14.0 °F 21% 29.88 in 10.0 mi ESE 10.4 mph - N/A   Clear
7:51 PM 52.0 °F - 15.1 °F 23% 29.78 in 10.0 mi ESE 11.5 mph - N/A   Clear
8:51 PM 51.8 °F - 14.0 °F 22% 29.87 in 10.0 mi SE 16.1 mph 24.2 mph N/A   Clear
9:51 PM 51.1 °F - 12.9 °F 22% 29.77 in 10.0 mi SE 9.2 mph - N/A   Clear
10:51 PM 52.0 °F - 12.9 °F 21% 29.76 in 10.0 mi SE 16.1 mph 20.7 mph N/A   Clear
11:51 PM 51.1 °F - 12.9 °F 22% 29.76 in 10.0 mi SE 11.5 mph - N/A   Clear